| time (UTC) | temp C | wind direction | speed KPH | gust KPH | rain 1hr cm | rain 24hr cm | rain mn cm | humidity % | barometer mb |
| 20260506235009 | 20 | 264 | 0.0 | 0.0 | 0.00 | 0.00 | 0.00 | 79 | 1013.1 |
| 20260506234507 | 20 | 276 | 0.0 | 0.0 | 0.00 | 0.00 | 0.00 | 78 | 1012.9 |
| 20260506234004 | 21 | 270 | 0.0 | 0.0 | 0.00 | 0.00 | 0.00 | 78 | 1012.9 |
| 20260506233500 | 21 | 267 | 0.0 | 0.0 | 0.00 | 0.00 | 0.00 | 77 | 1013.0 |
| 20260506232957 | 21 | 266 | 0.0 | 0.0 | 0.00 | 0.00 | 0.00 | 77 | 1012.6 |
| 20260506232454 | 22 | 265 | 0.0 | 0.0 | 0.00 | 0.00 | 0.00 | 75 | 1012.5 |
| 20260506231949 | 22 | 269 | 0.0 | 0.0 | 0.00 | 0.00 | 0.00 | 75 | 1012.5 |
| 20260506231447 | 22 | 263 | 0.0 | 0.0 | 0.00 | 0.00 | 0.00 | 76 | 1012.4 |
| 20260506230944 | 22 | 271 | 0.0 | 3.2 | 0.00 | 0.00 | 0.00 | 74 | 1012.5 |
| 20260506230440 | 22 | 274 | 0.0 | 0.0 | 0.00 | 0.00 | 0.00 | 75 | 1012.7 |
| 20260506225937 | 22 | 262 | 0.0 | 0.0 | 0.00 | 0.00 | 0.00 | 76 | 1012.6 |
| 20260506225434 | 22 | 246 | 0.0 | 0.0 | 0.00 | 0.00 | 0.00 | 75 | 1012.3 |
| 20260506224931 | 22 | 278 | 0.0 | 0.0 | 0.00 | 0.00 | 0.00 | 74 | 1012.5 |
| 20260506224428 | 22 | 297 | 0.0 | 0.0 | 0.00 | 0.00 | 0.00 | 73 | 1012.4 |
| 20260506223925 | 23 | 273 | 0.0 | 0.0 | 0.00 | 0.00 | 0.00 | 72 | 1012.3 |
| 20260506223420 | 23 | 268 | 0.0 | 0.0 | 0.00 | 0.00 | 0.00 | 71 | 1012.3 |
| 20260506222918 | 23 | 276 | 0.0 | 0.0 | 0.00 | 0.00 | 0.00 | 70 | 1012.4 |
| 20260506222414 | 25 | 262 | 0.0 | 0.0 | 0.00 | 0.00 | 0.00 | 68 | 1012.5 |
| 20260506221911 | 25 | 271 | 0.0 | 3.2 | 0.00 | 0.00 | 0.00 | 67 | 1012.3 |
| 20260506221408 | 26 | 281 | 0.0 | 3.2 | 0.00 | 0.00 | 0.00 | 66 | 1012.1 |
| 20260506220906 | 26 | 273 | 0.0 | 3.2 | 0.00 | 0.00 | 0.00 | 66 | 1011.7 |
| 20260506220401 | 26 | 267 | 0.0 | 0.0 | 0.00 | 0.00 | 0.00 | 68 | 1011.7 |
| 20260506215858 | 26 | 274 | 0.0 | 0.0 | 0.00 | 0.00 | 0.00 | 69 | 1011.7 |
| 20260506215354 | 26 | 271 | 3.2 | 6.4 | 0.00 | 0.00 | 0.00 | 68 | 1011.4 |
| 20260506214850 | 26 | 274 | 0.0 | 0.0 | 0.00 | 0.00 | 0.00 | 69 | 1011.7 |
| 20260506214347 | 27 | 271 | 0.0 | 0.0 | 0.00 | 0.00 | 0.00 | 69 | 1011.6 |
| 20260506213845 | 27 | 269 | 0.0 | 0.0 | 0.00 | 0.00 | 0.00 | 69 | 1011.7 |
| 20260506213342 | 28 | 266 | 0.0 | 3.2 | 0.00 | 0.00 | 0.00 | 68 | 1011.6 |
| 20260506212839 | 27 | 270 | 0.0 | 3.2 | 0.00 | 0.00 | 0.00 | 69 | 1011.7 |
| 20260506212335 | 27 | 265 | 0.0 | 0.0 | 0.00 | 0.00 | 0.00 | 71 | 1011.7 |
| 20260506211830 | 27 | 273 | 0.0 | 0.0 | 0.00 | 0.00 | 0.00 | 70 | 1011.7 |
| 20260506211326 | 27 | 268 | 0.0 | 0.0 | 0.00 | 0.00 | 0.00 | 70 | 1011.6 |
| 20260506210824 | 28 | 268 | 0.0 | 0.0 | 0.00 | 0.00 | 0.00 | 70 | 1011.6 |
| 20260506210320 | 27 | 270 | 0.0 | 0.0 | 0.00 | 0.00 | 0.00 | 72 | 1011.7 |
| 20260506205817 | 26 | 269 | 0.0 | 0.0 | 0.00 | 0.00 | 0.00 | 75 | 1011.9 |
| 20260506205314 | 26 | 268 | 0.0 | 0.0 | 0.00 | 0.00 | 0.00 | 77 | 1011.9 |
| 20260506204810 | 26 | 267 | 0.0 | 0.0 | 0.00 | 0.00 | 0.00 | 77 | 1012.0 |
| 20260506204308 | 26 | 260 | 1.6 | 3.2 | 0.00 | 0.00 | 0.00 | 77 | 1012.0 |
| 20260506203806 | 26 | 269 | 0.0 | 0.0 | 0.00 | 0.00 | 0.00 | 76 | 1011.6 |
| 20260506203303 | 26 | 277 | 0.0 | 0.0 | 0.00 | 0.00 | 0.00 | 76 | 1011.7 |
| 20260506202759 | 26 | 269 | 0.0 | 0.0 | 0.00 | 0.00 | 0.00 | 78 | 1011.9 |
| 20260506202256 | 27 | 259 | 0.0 | 0.0 | 0.00 | 0.00 | 0.00 | 76 | 1011.7 |
| 20260506201753 | 27 | 252 | 0.0 | 0.0 | 0.00 | 0.00 | 0.00 | 76 | 1011.6 |
| 20260506201249 | 27 | 242 | 0.0 | 0.0 | 0.00 | 0.00 | 0.00 | 77 | 1012.1 |
| 20260506200747 | 27 | 242 | 0.0 | 0.0 | 0.00 | 0.00 | 0.00 | 78 | 1012.0 |
| 20260506200243 | 27 | 242 | 0.0 | 0.0 | 0.00 | 0.00 | 0.00 | 78 | 1011.9 |
| 20260506195739 | 27 | 242 | 0.0 | 0.0 | 0.00 | 0.00 | 0.00 | 76 | 1012.1 |
| 20260506195236 | 27 | 242 | 0.0 | 0.0 | 0.00 | 0.00 | 0.00 | 75 | 1012.0 |
| 20260506194733 | 27 | 242 | 0.0 | 0.0 | 0.00 | 0.00 | 0.00 | 76 | 1012.3 |
| 20260506194230 | 27 | 235 | 0.0 | 0.0 | 0.00 | 0.00 | 0.00 | 76 | 1012.2 |
| 20260506193728 | 27 | 235 | 0.0 | 0.0 | 0.00 | 0.00 | 0.00 | 77 | 1012.1 |
| 20260506193224 | 27 | 234 | 0.0 | 3.2 | 0.00 | 0.00 | 0.00 | 76 | 1012.2 |
| 20260506192721 | 27 | 220 | 0.0 | 0.0 | 0.00 | 0.00 | 0.00 | 78 | 1012.2 |
| 20260506192218 | 27 | 228 | 3.2 | 6.4 | 0.00 | 0.00 | 0.00 | 76 | 1012.1 |
| 20260506191714 | 27 | 250 | 0.0 | 3.2 | 0.00 | 0.00 | 0.00 | 78 | 1012.0 |
| 20260506191210 | 27 | 248 | 0.0 | 0.0 | 0.00 | 0.00 | 0.00 | 79 | 1012.0 |
| 20260506190708 | 26 | 253 | 0.0 | 0.0 | 0.00 | 0.00 | 0.00 | 80 | 1012.2 |
| 20260506190204 | 26 | 241 | 1.6 | 3.2 | 0.00 | 0.00 | 0.00 | 80 | 1012.2 |
| 20260506185702 | 26 | 215 | 0.0 | 3.2 | 0.00 | 0.00 | 0.00 | 79 | 1012.4 |
| 20260506185158 | 26 | 251 | 0.0 | 6.4 | 0.00 | 0.00 | 0.00 | 79 | 1012.4 |
| 20260506184656 | 26 | 249 | 0.0 | 0.0 | 0.00 | 0.00 | 0.00 | 81 | 1012.3 |
| 20260506184153 | 26 | 246 | 0.0 | 0.0 | 0.00 | 0.00 | 0.00 | 80 | 1012.6 |
| 20260506183649 | 26 | 235 | 0.0 | 3.2 | 0.00 | 0.00 | 0.00 | 80 | 1012.5 |
| 20260506183145 | 26 | 246 | 0.0 | 3.2 | 0.00 | 0.00 | 0.00 | 81 | 1012.3 |
| 20260506182643 | 26 | 251 | 0.0 | 0.0 | 0.00 | 0.00 | 0.00 | 82 | 1012.7 |
| 20260506182139 | 27 | 246 | 0.0 | 3.2 | 0.00 | 0.00 | 0.00 | 79 | 1012.7 |
| 20260506181637 | 27 | 268 | 0.0 | 0.0 | 0.00 | 0.00 | 0.00 | 79 | 1012.8 |
| 20260506181134 | 27 | 270 | 0.0 | 0.0 | 0.00 | 0.00 | 0.00 | 78 | 1012.8 |
| 20260506180631 | 26 | 258 | 0.0 | 3.2 | 0.00 | 0.00 | 0.00 | 81 | 1012.8 |
| 20260506180128 | 26 | 235 | 0.0 | 9.7 | 0.00 | 0.00 | 0.00 | 80 | 1012.7 |
| 20260506175624 | 27 | 246 | 0.0 | 6.4 | 0.00 | 0.00 | 0.00 | 78 | 1012.7 |
| 20260506175120 | 26 | 247 | 0.0 | 0.0 | 0.00 | 0.00 | 0.00 | 83 | 1012.6 |
| 20260506174619 | 26 | 140 | 3.2 | 6.4 | 0.00 | 0.00 | 0.00 | 82 | 1012.8 |
| 20260506174115 | 25 | 246 | 1.6 | 3.2 | 0.00 | 0.00 | 0.00 | 85 | 1012.8 |
| 20260506173613 | 25 | 188 | 3.2 | 6.4 | 0.00 | 0.00 | 0.00 | 86 | 1012.9 |
| 20260506173109 | 25 | 268 | 0.0 | 0.0 | 0.00 | 0.00 | 0.00 | 89 | 1012.9 |
| 20260506172607 | 24 | 208 | 0.0 | 3.2 | 0.00 | 0.00 | 0.00 | 88 | 1013.0 |
| 20260506172103 | 24 | 248 | 0.0 | 0.0 | 0.00 | 0.00 | 0.00 | 88 | 1013.0 |
| 20260506171601 | 25 | 198 | 3.2 | 6.4 | 0.00 | 0.00 | 0.00 | 87 | 1013.0 |
| 20260506171058 | 25 | 227 | 0.0 | 3.2 | 0.00 | 0.00 | 0.00 | 86 | 1013.1 |
| 20260506170555 | 25 | 250 | 0.0 | 0.0 | 0.00 | 0.00 | 0.00 | 88 | 1013.0 |
| 20260506170053 | 25 | 141 | 3.2 | 6.4 | 0.00 | 0.00 | 0.00 | 87 | 1012.9 |
| 20260506165551 | 25 | 70 | 6.4 | 9.7 | 0.00 | 0.00 | 0.00 | 86 | 1012.7 |
| 20260506165047 | 25 | 226 | 0.0 | 6.4 | 0.00 | 0.00 | 0.00 | 86 | 1013.0 |
| 20260506164544 | 25 | 222 | 3.2 | 6.4 | 0.00 | 0.00 | 0.00 | 85 | 1012.9 |
| 20260506164042 | 25 | 241 | 1.6 | 3.2 | 0.00 | 0.00 | 0.00 | 86 | 1013.0 |
| 20260506163537 | 25 | 127 | 4.8 | 6.4 | 0.00 | 0.00 | 0.00 | 85 | 1012.8 |
| 20260506163033 | 25 | 221 | 3.2 | 6.4 | 0.00 | 0.00 | 0.00 | 85 | 1013.0 |
| 20260506162524 | 25 | 232 | 0.0 | 3.2 | 0.00 | 0.00 | 0.00 | 86 | 1012.8 |
| 20260506162021 | 25 | 224 | 0.0 | 6.4 | 0.00 | 0.00 | 0.00 | 85 | 1012.9 |
| 20260506161518 | 25 | 238 | 0.0 | 0.0 | 0.00 | 0.00 | 0.00 | 86 | 1012.9 |
| 20260506161015 | 25 | 151 | 4.8 | 6.4 | 0.00 | 0.00 | 0.00 | 86 | 1012.7 |
| 20260506160514 | 25 | 235 | 1.6 | 3.2 | 0.00 | 0.00 | 0.00 | 87 | 1012.6 |
| 20260506160011 | 25 | 254 | 0.0 | 3.2 | 0.00 | 0.00 | 0.00 | 88 | 1012.6 |
| 20260506155509 | 25 | 223 | 3.2 | 6.4 | 0.00 | 0.00 | 0.00 | 89 | 1012.6 |
| 20260506153640 | 24 | 235 | 0.0 | 3.2 | 0.00 | 0.00 | 0.00 | 90 | 1012.4 |
| 20260506153137 | 24 | 241 | 0.0 | 3.2 | 0.00 | 0.00 | 0.00 | 91 | 1012.5 |
| 20260506152634 | 23 | 244 | 0.0 | 0.0 | 0.00 | 0.00 | 0.00 | 92 | 1012.4 |
| 20260506152131 | 23 | 238 | 0.0 | 0.0 | 0.00 | 0.00 | 0.00 | 93 | 1012.3 |
| 20260506151630 | 23 | 241 | 0.0 | 0.0 | 0.00 | 0.00 | 0.00 | 94 | 1012.3 |
| 20260506151126 | 23 | 241 | 0.0 | 0.0 | 0.00 | 0.00 | 0.00 | 94 | 1012.5 |
| 20260506150623 | 23 | 241 | 0.0 | 0.0 | 0.00 | 0.00 | 0.00 | 95 | 1012.2 |
| 20260506150120 | 23 | 241 | 0.0 | 0.0 | 0.00 | 0.00 | 0.00 | 95 | 1012.1 |
| 20260506145617 | 23 | 243 | 0.0 | 3.2 | 0.00 | 0.00 | 0.00 | 95 | 1012.0 |
| 20260506145114 | 23 | 242 | 0.0 | 0.0 | 0.00 | 0.00 | 0.00 | 96 | 1012.0 |
| 20260506144611 | 23 | 243 | 0.0 | 0.0 | 0.00 | 0.00 | 0.00 | 96 | 1011.9 |
| 20260506144108 | 22 | 232 | 0.0 | 0.0 | 0.00 | 0.00 | 0.00 | 96 | 1012.0 |
| 20260506143606 | 23 | 248 | 0.0 | 0.0 | 0.00 | 0.00 | 0.00 | 96 | 1012.2 |
| 20260506143103 | 22 | 247 | 0.0 | 0.0 | 0.00 | 0.00 | 0.00 | 96 | 1012.2 |
| 20260506142601 | 22 | 249 | 0.0 | 0.0 | 0.00 | 0.00 | 0.00 | 97 | 1012.1 |
| 20260506142059 | 22 | 252 | 0.0 | 0.0 | 0.00 | 0.00 | 0.00 | 97 | 1012.2 |
| 20260506141556 | 22 | 253 | 0.0 | 0.0 | 0.00 | 0.00 | 0.00 | 97 | 1012.1 |
| 20260506141055 | 22 | 249 | 0.0 | 0.0 | 0.00 | 0.00 | 0.00 | 97 | 1011.7 |
| 20260506140552 | 22 | 244 | 0.0 | 0.0 | 0.00 | 0.00 | 0.00 | 98 | 1011.6 |
| 20260506140049 | 22 | 242 | 0.0 | 0.0 | 0.00 | 0.00 | 0.00 | 98 | 1011.4 |
| 20260506135546 | 22 | 244 | 0.0 | 0.0 | 0.00 | 0.00 | 0.00 | 98 | 1011.3 |
| 20260506135042 | 22 | 221 | 3.2 | 3.2 | 0.00 | 0.00 | 0.00 | 98 | 1011.0 |
| 20260506134539 | 22 | 205 | 1.6 | 3.2 | 0.00 | 0.00 | 0.00 | 98 | 1011.1 |
| 20260506134035 | 22 | 245 | 0.0 | 0.0 | 0.00 | 0.00 | 0.00 | 98 | 1011.0 |
| 20260506133532 | 22 | 237 | 0.0 | 0.0 | 0.00 | 0.00 | 0.00 | 98 | 1010.7 |
| 20260506133029 | 22 | 220 | 3.2 | 3.2 | 0.00 | 0.00 | 0.00 | 98 | 1010.5 |
| 20260506132526 | 22 | 245 | 0.0 | 3.2 | 0.00 | 0.00 | 0.00 | 98 | 1010.6 |
| 20260506132023 | 22 | 244 | 0.0 | 3.2 | 0.00 | 0.00 | 0.00 | 98 | 1010.5 |
| 20260506131520 | 22 | 247 | 0.0 | 6.4 | 0.00 | 0.00 | 0.00 | 98 | 1010.6 |
| 20260506131017 | 22 | 247 | 0.0 | 0.0 | 0.00 | 0.00 | 0.00 | 98 | 1010.7 |
| 20260506130514 | 22 | 235 | 1.6 | 6.4 | 0.00 | 0.00 | 0.00 | 98 | 1010.6 |
| 20260506130011 | 22 | 242 | 0.0 | 0.0 | 0.00 | 0.00 | 0.00 | 98 | 1010.5 |
| 20260506125509 | 22 | 242 | 0.0 | 6.4 | 0.00 | 0.00 | 0.00 | 98 | 1010.3 |
| 20260506125007 | 22 | 201 | 3.2 | 3.2 | 0.00 | 0.00 | 0.00 | 98 | 1010.2 |
| 20260506124504 | 22 | 239 | 1.6 | 3.2 | 0.00 | 0.00 | 0.00 | 98 | 1010.2 |
| 20260506124002 | 22 | 242 | 3.2 | 3.2 | 0.00 | 0.00 | 0.00 | 98 | 1010.1 |
| 20260506123500 | 22 | 235 | 3.2 | 3.2 | 0.00 | 0.00 | 0.00 | 98 | 1010.2 |
| 20260506122957 | 22 | 239 | 0.0 | 3.2 | 0.00 | 0.00 | 0.00 | 98 | 1010.2 |
| 20260506122454 | 22 | 233 | 0.0 | 0.0 | 0.00 | 0.00 | 0.00 | 98 | 1010.2 |
| 20260506121952 | 22 | 239 | 0.0 | 3.2 | 0.00 | 0.00 | 0.00 | 99 | 1010.3 |
| 20260506121449 | 22 | 242 | 0.0 | 3.2 | 0.00 | 0.00 | 0.00 | 99 | 1010.3 |
| 20260506120946 | 22 | 239 | 0.0 | 3.2 | 0.00 | 0.00 | 0.00 | 99 | 1010.3 |
| 20260506120443 | 22 | 238 | 0.0 | 3.2 | 0.00 | 0.00 | 0.00 | 99 | 1010.3 |
| 20260506115941 | 22 | 242 | 0.0 | 0.0 | 0.00 | 0.00 | 0.00 | 99 | 1010.3 |
| 20260506115439 | 22 | 240 | 0.0 | 0.0 | 0.00 | 0.00 | 0.00 | 99 | 1010.1 |
| 20260506114937 | 22 | 242 | 0.0 | 3.2 | 0.00 | 0.00 | 0.00 | 99 | 1010.3 |
| 20260506114434 | 22 | 237 | 0.0 | 0.0 | 0.00 | 0.00 | 0.00 | 99 | 1010.2 |
| 20260506113932 | 22 | 238 | 0.0 | 0.0 | 0.00 | 0.00 | 0.00 | 99 | 1010.2 |
| 20260506113430 | 22 | 238 | 0.0 | 0.0 | 0.00 | 0.00 | 0.00 | 99 | 1010.2 |
| 20260506112926 | 22 | 240 | 0.0 | 0.0 | 0.00 | 0.00 | 0.00 | 99 | 1010.3 |
| 20260506112424 | 22 | 241 | 0.0 | 0.0 | 0.00 | 0.00 | 0.00 | 99 | 1010.2 |
| 20260506111921 | 22 | 241 | 0.0 | 0.0 | 0.00 | 0.00 | 0.00 | 99 | 1010.1 |
| 20260506111419 | 22 | 240 | 0.0 | 0.0 | 0.00 | 0.00 | 0.00 | 99 | 1010.3 |
| 20260506110916 | 22 | 244 | 0.0 | 0.0 | 0.00 | 0.00 | 0.00 | 99 | 1010.3 |
| 20260506110414 | 22 | 245 | 0.0 | 0.0 | 0.00 | 0.00 | 0.00 | 99 | 1010.4 |
| 20260506105910 | 22 | 245 | 0.0 | 0.0 | 0.00 | 0.00 | 0.00 | 99 | 1010.3 |
| 20260506105406 | 22 | 245 | 0.0 | 0.0 | 0.00 | 0.00 | 0.00 | 99 | 1010.3 |
| 20260506104904 | 22 | 252 | 0.0 | 3.2 | 0.00 | 0.00 | 0.00 | 99 | 1010.4 |
| 20260506104401 | 22 | 250 | 0.0 | 6.4 | 0.00 | 0.00 | 0.00 | 99 | 1010.3 |
| 20260506103859 | 22 | 248 | 0.0 | 0.0 | 0.00 | 0.00 | 0.00 | 99 | 1010.3 |
| 20260506103356 | 22 | 253 | 0.0 | 3.2 | 0.00 | 0.00 | 0.00 | 99 | 1010.2 |
| 20260506102853 | 22 | 233 | 3.2 | 6.4 | 0.00 | 0.00 | 0.00 | 99 | 1010.0 |
| 20260506102351 | 22 | 240 | 0.0 | 0.0 | 0.00 | 0.00 | 0.00 | 99 | 1010.2 |
| 20260506101848 | 22 | 231 | 3.2 | 3.2 | 0.00 | 0.00 | 0.00 | 99 | 1010.2 |
| 20260506101344 | 22 | 249 | 0.0 | 3.2 | 0.00 | 0.00 | 0.00 | 99 | 1010.2 |
| 20260506100842 | 22 | 235 | 3.2 | 6.4 | 0.00 | 0.00 | 0.00 | 99 | 1010.4 |
| 20260506100340 | 22 | 238 | 0.0 | 3.2 | 0.00 | 0.00 | 0.00 | 99 | 1010.0 |
| 20260506095838 | 22 | 200 | 3.2 | 9.7 | 0.00 | 0.00 | 0.00 | 99 | 1010.2 |
| 20260506095335 | 22 | 185 | 4.8 | 6.4 | 0.00 | 0.00 | 0.00 | 99 | 1010.0 |
| 20260506094832 | 22 | 252 | 3.2 | 6.4 | 0.00 | 0.00 | 0.00 | 98 | 1010.2 |
| 20260506094331 | 22 | 221 | 1.6 | 6.4 | 0.00 | 0.00 | 0.00 | 98 | 1010.1 |
| 20260506093829 | 22 | 244 | 1.6 | 3.2 | 0.00 | 0.00 | 0.00 | 98 | 1010.0 |
| 20260506093326 | 22 | 249 | 1.6 | 9.7 | 0.00 | 0.00 | 0.00 | 98 | 1010.0 |
| 20260506092823 | 22 | 244 | 1.6 | 6.4 | 0.00 | 0.00 | 0.00 | 97 | 1010.0 |
| 20260506092321 | 22 | 247 | 4.8 | 9.7 | 0.00 | 0.00 | 0.00 | 97 | 1010.0 |
| 20260506091818 | 22 | 156 | 4.8 | 9.7 | 0.00 | 0.00 | 0.00 | 98 | 1010.0 |
| 20260506091315 | 22 | 234 | 4.8 | 6.4 | 0.00 | 0.00 | 0.00 | 98 | 1009.8 |
| 20260506090813 | 22 | 135 | 3.2 | 6.4 | 0.00 | 0.00 | 0.00 | 98 | 1009.8 |
| 20260506090310 | 22 | 235 | 3.2 | 9.7 | 0.00 | 0.00 | 0.00 | 97 | 1009.8 |
| 20260506085807 | 22 | 199 | 4.8 | 6.4 | 0.00 | 0.00 | 0.00 | 97 | 1009.8 |
| 20260506085305 | 22 | 244 | 3.2 | 6.4 | 0.00 | 0.00 | 0.00 | 97 | 1009.8 |
| 20260506084759 | 22 | 215 | 3.2 | 6.4 | 0.00 | 0.00 | 0.00 | 97 | 1009.9 |
| 20260506084256 | 22 | 154 | 6.4 | 9.7 | 0.00 | 0.00 | 0.00 | 97 | 1009.7 |
| 20260506083753 | 22 | 244 | 0.0 | 9.7 | 0.00 | 0.00 | 0.00 | 96 | 1009.8 |
| 20260506083251 | 22 | 238 | 3.2 | 6.4 | 0.00 | 0.00 | 0.00 | 96 | 1009.7 |
| 20260506082748 | 22 | 242 | 0.0 | 6.4 | 0.00 | 0.00 | 0.00 | 96 | 1009.7 |
| 20260506082243 | 22 | 234 | 3.2 | 6.4 | 0.00 | 0.00 | 0.00 | 96 | 1009.8 |
| 20260506081741 | 22 | 202 | 4.8 | 9.7 | 0.00 | 0.00 | 0.00 | 96 | 1009.7 |
| 20260506081238 | 22 | 239 | 6.4 | 9.7 | 0.00 | 0.00 | 0.00 | 96 | 1009.9 |
| 20260506080737 | 22 | 129 | 12.9 | 16.1 | 0.00 | 0.00 | 0.00 | 96 | 1010.0 |
| 20260506080232 | 22 | 223 | 3.2 | 6.4 | 0.00 | 0.00 | 0.00 | 96 | 1010.0 |
| 20260506073217 | 22 | 151 | 6.4 | 9.7 | 0.00 | 0.00 | 0.00 | 96 | 1010.2 |
| 20260506072713 | 22 | 195 | 6.4 | 12.9 | 0.00 | 0.00 | 0.00 | 96 | 1010.3 |
| 20260506072211 | 22 | 149 | 8.0 | 16.1 | 0.00 | 0.00 | 0.00 | 96 | 1010.2 |
| 20260506071708 | 23 | 237 | 1.6 | 6.4 | 0.00 | 0.00 | 0.00 | 96 | 1010.4 |
| 20260506071206 | 23 | 237 | 4.8 | 9.7 | 0.00 | 0.00 | 0.00 | 96 | 1010.4 |
| 20260506070703 | 22 | 236 | 4.8 | 6.4 | 0.00 | 0.00 | 0.00 | 96 | 1010.4 |
| 20260506070200 | 22 | 223 | 3.2 | 6.4 | 0.00 | 0.00 | 0.00 | 96 | 1010.5 |
| 20260506062137 | 23 | 226 | 3.2 | 6.4 | 0.00 | 0.00 | 0.00 | 95 | 1010.5 |
| 20260506061632 | 23 | 231 | 4.8 | 6.4 | 0.00 | 0.00 | 0.00 | 95 | 1010.4 |
| 20260506061131 | 23 | 232 | 3.2 | 9.7 | 0.00 | 0.00 | 0.00 | 95 | 1010.5 |
| 20260506060629 | 23 | 230 | 3.2 | 6.4 | 0.00 | 0.00 | 0.00 | 94 | 1010.5 |
| 20260506060125 | 23 | 227 | 3.2 | 6.4 | 0.00 | 0.00 | 0.00 | 94 | 1010.5 |
| 20260506051057 | 23 | 233 | 8.0 | 12.9 | 0.00 | 0.00 | 0.00 | 93 | 1010.3 |
| 20260506050555 | 23 | 239 | 3.2 | 9.7 | 0.00 | 0.00 | 0.00 | 93 | 1010.4 |
| 20260506045046 | 23 | 242 | 1.6 | 3.2 | 0.00 | 0.00 | 0.00 | 93 | 1010.4 |
| 20260506044544 | 23 | 237 | 0.0 | 9.7 | 0.00 | 0.00 | 0.00 | 93 | 1010.3 |
| 20260506044040 | 23 | 221 | 3.2 | 6.4 | 0.00 | 0.00 | 0.00 | 93 | 1010.3 |
| 20260506043537 | 23 | 236 | 4.8 | 6.4 | 0.00 | 0.00 | 0.00 | 93 | 1010.2 |
| 20260506043036 | 23 | 232 | 1.6 | 6.4 | 0.00 | 0.00 | 0.00 | 93 | 1010.2 |
| 20260506042534 | 24 | 217 | 3.2 | 6.4 | 0.00 | 0.00 | 0.00 | 93 | 1010.1 |
| 20260506042032 | 24 | 220 | 3.2 | 6.4 | 0.00 | 0.00 | 0.00 | 92 | 1010.0 |
| 20260506041531 | 24 | 212 | 4.8 | 9.7 | 0.00 | 0.00 | 0.00 | 92 | 1010.1 |
| 20260506041027 | 24 | 237 | 4.8 | 9.7 | 0.00 | 0.00 | 0.00 | 92 | 1010.2 |
| 20260506040525 | 24 | 224 | 3.2 | 6.4 | 0.00 | 0.00 | 0.00 | 92 | 1010.1 |
| 20260506040020 | 24 | 229 | 1.6 | 6.4 | 0.00 | 0.00 | 0.00 | 92 | 1010.2 |
| 20260506035518 | 24 | 176 | 4.8 | 6.4 | 0.00 | 0.00 | 0.00 | 92 | 1010.1 |
| 20260506035014 | 24 | 223 | 3.2 | 6.4 | 0.00 | 0.00 | 0.00 | 92 | 1010.1 |
| 20260506034512 | 24 | 209 | 6.4 | 9.7 | 0.00 | 0.00 | 0.00 | 92 | 1009.9 |
| 20260506034009 | 24 | 211 | 3.2 | 6.4 | 0.00 | 0.00 | 0.00 | 91 | 1010.0 |
| 20260506033506 | 24 | 231 | 0.0 | 6.4 | 0.00 | 0.00 | 0.00 | 91 | 1009.7 |
| 20260506033002 | 25 | 227 | 1.6 | 3.2 | 0.00 | 0.00 | 0.00 | 90 | 1009.6 |
| 20260506032500 | 25 | 236 | 3.2 | 6.4 | 0.00 | 0.00 | 0.00 | 90 | 1009.8 |
| 20260506031956 | 25 | 198 | 3.2 | 6.4 | 0.00 | 0.00 | 0.00 | 90 | 1009.7 |
| 20260506031454 | 25 | 214 | 0.0 | 3.2 | 0.00 | 0.00 | 0.00 | 89 | 1009.6 |
| 20260506030951 | 25 | 220 | 3.2 | 6.4 | 0.00 | 0.00 | 0.00 | 89 | 1009.6 |
| 20260506030449 | 25 | 214 | 3.2 | 3.2 | 0.00 | 0.00 | 0.00 | 88 | 1009.5 |
| 20260506025946 | 25 | 236 | 3.2 | 6.4 | 0.00 | 0.00 | 0.00 | 88 | 1009.1 |
| 20260506025443 | 25 | 229 | 3.2 | 6.4 | 0.00 | 0.00 | 0.00 | 87 | 1009.2 |
| 20260506024939 | 25 | 228 | 3.2 | 6.4 | 0.00 | 0.00 | 0.00 | 87 | 1009.0 |
| 20260506024436 | 25 | 234 | 3.2 | 6.4 | 0.00 | 0.00 | 0.00 | 87 | 1009.1 |
| 20260506023932 | 25 | 236 | 1.6 | 3.2 | 0.00 | 0.00 | 0.00 | 87 | 1008.9 |
| 20260506023429 | 25 | 236 | 1.6 | 3.2 | 0.00 | 0.00 | 0.00 | 87 | 1009.0 |
| 20260506022926 | 25 | 235 | 1.6 | 3.2 | 0.00 | 0.00 | 0.00 | 86 | 1008.8 |
| 20260506022424 | 25 | 229 | 0.0 | 3.2 | 0.00 | 0.00 | 0.00 | 86 | 1008.8 |
| 20260506021921 | 25 | 223 | 3.2 | 3.2 | 0.00 | 0.00 | 0.00 | 86 | 1008.6 |
| 20260506021418 | 25 | 227 | 3.2 | 3.2 | 0.00 | 0.00 | 0.00 | 85 | 1008.6 |
| 20260506020915 | 25 | 226 | 1.6 | 3.2 | 0.00 | 0.00 | 0.00 | 85 | 1008.7 |
| 20260506020413 | 25 | 229 | 1.6 | 3.2 | 0.00 | 0.00 | 0.00 | 85 | 1008.4 |
| 20260506015910 | 25 | 227 | 0.0 | 3.2 | 0.00 | 0.00 | 0.00 | 84 | 1008.6 |
| 20260506015408 | 25 | 225 | 3.2 | 3.2 | 0.00 | 0.00 | 0.00 | 84 | 1008.2 |
| 20260506014904 | 25 | 225 | 1.6 | 3.2 | 0.00 | 0.00 | 0.00 | 84 | 1008.5 |
| 20260506014401 | 25 | 225 | 0.0 | 0.0 | 0.00 | 0.00 | 0.00 | 84 | 1008.3 |
| 20260506013858 | 25 | 225 | 0.0 | 0.0 | 0.00 | 0.00 | 0.00 | 83 | 1008.0 |
| 20260506013356 | 25 | 225 | 0.0 | 0.0 | 0.00 | 0.00 | 0.00 | 83 | 1008.0 |
| 20260506012851 | 25 | 225 | 0.0 | 0.0 | 0.00 | 0.00 | 0.00 | 83 | 1007.9 |
| 20260506012348 | 26 | 225 | 0.0 | 0.0 | 0.00 | 0.00 | 0.00 | 82 | 1008.0 |
| 20260506011846 | 26 | 225 | 0.0 | 0.0 | 0.00 | 0.00 | 0.00 | 83 | 1007.9 |
| 20260506011342 | 26 | 225 | 0.0 | 0.0 | 0.00 | 0.00 | 0.00 | 82 | 1007.8 |
| 20260506010840 | 26 | 225 | 0.0 | 0.0 | 0.00 | 0.00 | 0.00 | 82 | 1007.9 |
| 20260506010338 | 26 | 225 | 0.0 | 0.0 | 0.00 | 0.00 | 0.00 | 81 | 1008.0 |
| 20260506005834 | 26 | 225 | 0.0 | 0.0 | 0.00 | 0.00 | 0.00 | 80 | 1007.7 |
| 20260506005331 | 27 | 225 | 0.0 | 0.0 | 0.00 | 0.00 | 0.00 | 79 | 1007.9 |
| 20260506004827 | 27 | 225 | 0.0 | 0.0 | 0.00 | 0.00 | 0.00 | 79 | 1007.9 |
| 20260506004325 | 27 | 225 | 0.0 | 0.0 | 0.00 | 0.00 | 0.00 | 78 | 1007.9 |
| 20260506003821 | 27 | 225 | 0.0 | 0.0 | 0.00 | 0.00 | 0.00 | 78 | 1007.9 |
| 20260506003317 | 27 | 225 | 0.0 | 0.0 | 0.00 | 0.00 | 0.00 | 77 | 1007.9 |
| 20260506002813 | 27 | 225 | 0.0 | 0.0 | 0.00 | 0.00 | 0.00 | 77 | 1008.1 |
| 20260506002310 | 27 | 225 | 0.0 | 0.0 | 0.00 | 0.00 | 0.00 | 76 | 1008.0 |
| 20260506001806 | 27 | 225 | 0.0 | 0.0 | 0.00 | 0.00 | 0.00 | 77 | 1008.0 |
| 20260506001303 | 27 | 225 | 0.0 | 0.0 | 0.00 | 0.00 | 0.00 | 76 | 1008.1 |
| 20260506000800 | 27 | 225 | 0.0 | 0.0 | 0.00 | 0.00 | 0.00 | 75 | 1008.0 |
| 20260506000258 | 27 | 225 | 0.0 | 0.0 | 0.00 | 0.00 | 0.00 | 76 | 1007.9 |
| 20260505235754 | 27 | 225 | 0.0 | 6.4 | 0.00 | 0.00 | 0.00 | 75 | 1007.9 |
| 20260505235252 | 27 | 230 | 0.0 | 3.2 | 0.00 | 0.00 | 0.00 | 75 | 1008.0 |